Regional Weather Roundup
Issued by NWS Northern Indiana

Home | Current Version | Previous Version | Graphics & Text | Print | Product List | Glossary On
Versions: 1 2 3 4 5 6 7 8 9 10 11 12 13 14 15 16 17 18 19 20 21 22 23 24 25 26 27 28 29 30 31 32 33 34 35 36 37 38 39 40 41 42 43 44 45 46 47 48 49 50
000
ASUS43 KIWX 231510
RWRIWX

KIWX WEATHER ROUNDUP
NATIONAL WEATHER SERVICE NORTHERN INDIANA
1100 AM EDT MON OCT 23 2017

NOTE: "FAIR" INDICATES FEW OR NO CLOUDS BELOW 12,000 FEET WITH NO
SIGNIFICANT WEATHER AND/OR OBSTRUCTIONS TO VISIBILITY.

* THESE STATIONS ARE NOT UNDER NWS QUALITY CONTROL. THEY ALSO MAY NOT
  REPORT WEATHER SUCH AS PRECIPITATION OR FOG.

INZ001>027-231600-
NORTHERN INDIANA

CITY           SKY/WX    TMP DP  RH WIND       PRES   REMARKS
GARY*          LGT RAIN  55  55 100 N18       29.83F
VALPARAISO     LGT RAIN  56  54  93 N14G22    29.78F
MICHIGAN CITY* LGT RAIN  54  54 100 N10G20    29.80F
LAPORTE*       RAIN      54  53  96 N17       29.78F
KNOX*          CLOUDY    54  54 100 N12       29.76F
SOUTH BEND     LGT RAIN  53  53 100 N13       29.78F
ELKHART*       LGT RAIN  59  57  94 N3        29.77F
GOSHEN         LGT RAIN  61  56  83 CALM      29.74F
MONTICELLO*    RAIN      57  55  95 N3        29.72F
LOGANSPORT*    LGT RAIN  59  59 100 NE3       29.73F
WARSAW*        LGT RAIN  59  59 100 SE3       29.75F
AUBURN*        DRIZZLE   61  55  82 E6        29.76F
FORT WAYNE     CLOUDY    62  56  80 SE9       29.76F
HUNTINGTON*    CLOUDY    62  58  86 SE8       29.75F
PERU/GRISSOM   LGT RAIN  61  61 100 SE6       29.72F
MARION*        CLOUDY    63  57  82 SE9       29.74F

$$
INZ028>050-231600-
CENTRAL INDIANA

CITY           SKY/WX    TMP DP  RH WIND       PRES   REMARKS
LAFAYETTE      RAIN      57  57 100 N14       29.72F FOG
KOKOMO*        LGT RAIN  61  59  93 SE7       29.73F
MUNCIE*        CLOUDY    65  57  75 S10G22    29.75F
INDIANAPOLIS   LGT RAIN  62  61  96 S16       29.73F

$$
MIZ043>046-050>051-056>058-064>065-071>073-077>080-231600-
SOUTHWEST LOWER MICHIGAN

CITY           SKY/WX    TMP DP  RH WIND       PRES   REMARKS
BATTLE CREEK   LGT RAIN  59  58  96 SE6       29.78F
BENTON HARBOR  HVY RAIN  54  51  90 NE7       29.79F FOG
COLDWATER*     LGT RAIN  60  56  84 SE8       29.78F
HILLSDALE*     LGT RAIN  61  52  72 SE6       29.81S
HOLLAND        RAIN      53  51  93 VRB6      29.81F FOG
GRAND RAPIDS   HVY RAIN  54  54 100 N9        29.78F FOG
KALAMAZOO      LGT RAIN  59  55  87 CALM      29.78F FOG
STURGIS*       LGT RAIN  58  56  93 SE7       29.76F
THREE RIVERS*  LGT RAIN  60  58  94 CALM      29.78F

$$
OHZ001>008-015>018-024>025-231600-
NORTHWEST OHIO

CITY           SKY/WX    TMP DP  RH WIND       PRES   REMARKS
WAUSEON*       LGT RAIN  63  57  82 SE9       29.81F
DEFIANCE       LGT RAIN  61  56  83 E6        29.79F
FINDLAY        CLOUDY    67  53  61 SE14G21   29.81F
TOLEDO EXPRESS CLOUDY    66  56  70 SE5       29.82F
TOLEDO METCALF CLOUDY    67  55  65 SE13      29.84F
LIMA           LGT RAIN  64  58  80 SE12      29.80F

$$
AND FOR LAKE MICHIGAN COASTAL AND OPEN LAKE BUOY OBSERVATIONS

STATION/POSITION TEMP    WIND        PRES    VSBY  WAVE
                 AIR SEA DIR/SP/G                  HT/PER
                 (F)     (DEG/KT/KT) (MB)    (MI)  (FT/S)
CALUMET HARBOR    54     350/ 10/ 14 1009.5F
MICHIGAN CITY     55      10/ 21/ 23   N/A
BURNS HARBOR      56      10/ 19/ 24 1009.8F
SAINT JOSEPH      54      30/ 12/ 19 1009.5
SOUTH LAKE BUOY   55 60   20/ 19/ 23 1010.3          3/ 5
4 MI NW BRIDGMAN  56 59   50/ 17/ 23 1009.3          6/ 6
MICHIGAN CITY     56 57   20/ 17/ 23   N/A           7/ 6

$$
&&




USA.gov is the U.S. government's official web portal to all federal, state and local government web resources and services.